This is the latest recevied weather packets stored in our database for station/object DM1HF-13. If no packets are shown the sender has not sent any weather packets the latest 10 day(s).
| Time | Temp. | Humidity | Pressure | Rain* | Wind** | Luminosity | Snow |
|---|---|---|---|---|---|---|---|
| 1777803616 | 27.22° C | 30% | 1015.3 hPa | 0 mm | - | 310 W/m² | - |
| 1777803316 | 27.22° C | 30% | 1015.4 hPa | 0 mm | - | 365 W/m² | - |
| 1777803016 | 27.22° C | 30% | 1015.4 hPa | 0 mm | - | 620 W/m² | - |
| 1777802716 | 27.22° C | 30% | 1015.4 hPa | 0 mm | - | 428 W/m² | - |
| 1777802416 | 26.67° C | 32% | 1015.5 hPa | 0 mm | - | 299 W/m² | - |
| 1777802116 | 26.67° C | 34% | 1015.5 hPa | 0 mm | - | 524 W/m² | - |
| 1777801816 | 26.67° C | 32% | 1015.5 hPa | 0 mm | - | 462 W/m² | - |
| 1777801516 | 26.11° C | 31% | 1015.4 hPa | 0 mm | - | 276 W/m² | - |
| 1777801216 | 26.67° C | 32% | 1015.6 hPa | 0 mm | - | 487 W/m² | - |
| 1777800916 | 26.67° C | 33% | 1015.6 hPa | 0 mm | - | 553 W/m² | - |
| 1777800616 | 26.67° C | 32% | 1015.7 hPa | 0 mm | - | 591 W/m² | - |
| 1777800316 | 26.11° C | 34% | 1015.8 hPa | 0 mm | - | 557 W/m² | - |
| 1777800016 | 25.56° C | 36% | 1015.8 hPa | 0 mm | - | 563 W/m² | - |
| 1777799716 | 25.56° C | 34% | 1015.8 hPa | 0 mm | - | 616 W/m² | - |
| 1777799416 | 25.56° C | 35% | 1015.8 hPa | 0 mm | - | 241 W/m² | - |
| 1777799116 | 25.56° C | 36% | 1015.8 hPa | 0 mm | - | 609 W/m² | - |
| 1777798816 | 25° C | 36% | 1015.8 hPa | 0 mm | - | 526 W/m² | - |
| 1777798516 | 24.44° C | 36% | 1015.8 hPa | 0 mm | - | 582 W/m² | - |
| 1777798216 | 24.44° C | 36% | 1015.8 hPa | 0 mm | - | 541 W/m² | - |
| 1777797916 | 24.44° C | 37% | 1015.8 hPa | 0 mm | - | 535 W/m² | - |
| 1777797616 | 23.89° C | 37% | 1015.9 hPa | 0 mm | - | 541 W/m² | - |
| 1777797316 | 23.89° C | 38% | 1016.1 hPa | 0 mm | - | 550 W/m² | - |
| 1777797016 | 23.89° C | 37% | 1016.1 hPa | 0 mm | - | 564 W/m² | - |
| 1777796716 | 23.33° C | 38% | 1016.2 hPa | 0 mm | - | 571 W/m² | - |
| 1777796416 | 23.33° C | 38% | 1016.2 hPa | 0 mm | - | 581 W/m² | - |
* Rain latest hour (hover to see other rain measurements)
** Current wind speed in m/s (hover to see current wind gust speed)